Vatry, France

8:07 PM CEST on August 25, 2016 (GMT +0200)
Vatry

Weather History for LFOK - September, 2013

Change the Weather History Date:

Monday, September 30, 2013

  Actual Average (LFQB) Record (LFQB)
Temperature  
Mean Temperature 57 °F -  
Max Temperature 68 °F 65 °F 82 °F (2011)
Min Temperature 46 °F 48 °F 33 °F (2003)
Degree Days  
Heating Degree Days 8    
Growing Degree Days 7 (Base 50)    
Moisture  
Dew Point 51 °F    
Average Humidity 82    
Maximum Humidity 100    
Minimum Humidity 64    
Precipitation  
Precipitation 0.00 in - - ()
Sea Level Pressure  
Sea Level Pressure 29.71 in    
Wind  
Wind Speed 5 mph ()    
Max Wind Speed 9 mph    
Max Gust Speed -    
Visibility 6.2 miles    
Events      
Averages and records for this station are not official NWS values.
T = Trace of Precipitation, MM = Missing Value Source: Averaged Metar Reports

Daily Weather History Graph

Daily Weather History Graph

Search for Another Location

Airport or City:

Trip Planner

Search our weather history database for the weather conditions in past years. The results will help you decide how hot, cold, wet, or windy it might be!

Date:

Astronomy

Sep. 30, 2013 Rise Set
Actual Time 7:41 AM CEST 7:24 PM CEST
Civil Twilight 7:09 AM CEST 7:55 PM CEST
Nautical Twilight 6:33 AM CEST 8:32 PM CEST
Astronomical Twilight 5:55 AM CEST 9:09 PM CEST
Moon 2:43 AM CEST (9/30) 5:03 PM CEST (9/30)
Length of Visible Light 12h 45m
Length of Day
11h 42m
Waning Crescent, 21% of the Moon is Illuminated
Sep 30
Waning Crescent
Oct 5
New
Oct 12
First Quarter
Oct 19
Full
Oct 27
Last Quarter

Hourly Weather History & Observations

Time (CEST) Temp. Windchill Dew Point Humidity Pressure Visibility Wind Dir Wind Speed Gust Speed Precip Events Conditions
12:00 AM 53.6 °F - 50.0 °F 88% 29.71 in 6.2 mi ENE 5.8 mph - N/A   Unknown
12:30 AM 53.6 °F - 50.0 °F 88% 29.71 in 6.2 mi ENE 6.9 mph - N/A   Unknown
1:00 AM 53.6 °F - 50.0 °F 88% 29.71 in 6.2 mi ENE 5.8 mph - N/A   Partly Cloudy
1:30 AM 51.8 °F - 48.2 °F 88% 29.71 in 6.2 mi ENE 5.8 mph - N/A   Unknown
2:00 AM 51.8 °F - 48.2 °F 88% 29.71 in 6.2 mi ENE 4.6 mph - N/A   Scattered Clouds
2:30 AM 50.0 °F - 48.2 °F 94% 29.71 in 6.2 mi NNE 4.6 mph - N/A   Scattered Clouds
3:00 AM 50.0 °F - 48.2 °F 94% 29.71 in 6.2 mi NNE 5.8 mph - N/A   Mostly Cloudy
3:30 AM 50.0 °F - 48.2 °F 94% 29.71 in 6.2 mi North 3.5 mph - N/A   Mostly Cloudy
4:00 AM 50.0 °F - 48.2 °F 94% 29.71 in 6.2 mi NNE 5.8 mph - N/A   Overcast
4:30 AM 50.0 °F - 48.2 °F 94% 29.68 in 6.2 mi NNE 5.8 mph - N/A   Mostly Cloudy
5:00 AM 48.2 °F - 46.4 °F 93% 29.68 in 6.2 mi NE 6.9 mph - N/A   Mostly Cloudy
5:30 AM 48.2 °F - 46.4 °F 93% 29.68 in 6.2 mi NNE 3.5 mph - N/A   Unknown
6:00 AM 48.2 °F - 46.4 °F 93% 29.68 in 6.2 mi NNE 3.5 mph - N/A   Unknown
6:30 AM 46.4 °F 43.5 °F 46.4 °F 100% 29.68 in 6.2 mi NNE 5.8 mph - N/A   Unknown
7:00 AM 46.4 °F 44.3 °F 46.4 °F 100% 29.68 in 6.2 mi NNE 4.6 mph - N/A   Mostly Cloudy
7:30 AM 48.2 °F - 46.4 °F 93% 29.68 in 6.2 mi NNE 4.6 mph - N/A   Overcast
8:00 AM 48.2 °F - 46.4 °F 93% 29.68 in 6.2 mi NNE 3.5 mph - N/A   Unknown
8:30 AM 50.0 °F - 48.2 °F 94% 29.68 in 6.2 mi NE 5.8 mph - N/A   Unknown
9:00 AM 51.8 °F - 50.0 °F 94% 29.71 in 6.2 mi NE 4.6 mph - N/A   Unknown
9:30 AM 55.4 °F - 48.2 °F 77% 29.68 in 6.2 mi ENE 8.1 mph - N/A   Unknown
10:00 AM 55.4 °F - 48.2 °F 77% 29.68 in 6.2 mi ENE 9.2 mph - N/A   Unknown
10:30 AM 55.4 °F - 48.2 °F 77% 29.71 in 6.2 mi East 8.1 mph - N/A   Unknown
11:00 AM 57.2 °F - 50.0 °F 77% 29.71 in 6.2 mi East 8.1 mph - N/A   Unknown
11:30 AM 57.2 °F - 50.0 °F 77% 29.71 in 6.2 mi East 5.8 mph - N/A   Unknown
12:00 PM 60.8 °F - 51.8 °F 72% 29.71 in 6.2 mi East 4.6 mph - N/A   Scattered Clouds
12:30 PM 62.6 °F - 51.8 °F 68% 29.71 in 6.2 mi Variable 3.5 mph - N/A   Unknown
1:00 PM 64.4 °F - 51.8 °F 64% 29.71 in 6.2 mi ENE 4.6 mph - N/A   Unknown
1:30 PM 64.4 °F - 53.6 °F 68% 29.71 in 6.2 mi East 3.5 mph - N/A   Mostly Cloudy
2:00 PM 64.4 °F - 53.6 °F 68% 29.71 in 6.2 mi Variable 3.5 mph - N/A   Partly Cloudy
2:30 PM 66.2 °F - 55.4 °F 68% 29.71 in 6.2 mi Variable 3.5 mph - N/A   Scattered Clouds
3:00 PM 66.2 °F - 53.6 °F 64% 29.71 in 6.2 mi NE 4.6 mph - N/A   Partly Cloudy
3:30 PM 66.2 °F - 53.6 °F 64% 29.71 in 6.2 mi ENE 3.5 mph - N/A   Unknown
4:00 PM 66.2 °F - 55.4 °F 68% 29.71 in 6.2 mi Variable 3.5 mph - N/A   Scattered Clouds
4:30 PM 68.0 °F - 55.4 °F 64% 29.71 in 6.2 mi Variable 3.5 mph - N/A   Mostly Cloudy
5:00 PM 68.0 °F - 55.4 °F 64% 29.71 in 6.2 mi Variable 2.3 mph - N/A   Mostly Cloudy
5:30 PM 66.2 °F - 53.6 °F 64% 29.71 in 6.2 mi NE 4.6 mph - N/A   Mostly Cloudy
6:00 PM 64.4 °F - 55.4 °F 73% 29.71 in 6.2 mi ENE 5.8 mph - N/A   Overcast
6:30 PM 64.4 °F - 55.4 °F 73% 29.71 in 6.2 mi East 5.8 mph - N/A   Overcast
7:00 PM 62.6 °F - 55.4 °F 77% 29.74 in 6.2 mi East 6.9 mph - N/A   Mostly Cloudy
7:30 PM 62.6 °F - 55.4 °F 77% 29.74 in 6.2 mi East 8.1 mph - N/A   Mostly Cloudy
8:00 PM 60.8 °F - 55.4 °F 82% 29.74 in 6.2 mi East 8.1 mph - N/A   Overcast
8:30 PM 59.0 °F - 55.4 °F 88% 29.74 in 6.2 mi East 6.9 mph - N/A   Mostly Cloudy
9:00 PM 59.0 °F - 55.4 °F 88% 29.74 in 6.2 mi ESE 5.8 mph - N/A   Overcast
9:30 PM 59.0 °F - 55.4 °F 88% 29.77 in 6.2 mi East 6.9 mph - N/A   Mostly Cloudy
10:00 PM 59.0 °F - 53.6 °F 82% 29.77 in 6.2 mi East 6.9 mph - N/A   Scattered Clouds
10:30 PM 57.2 °F - 53.6 °F 88% 29.77 in 6.2 mi East 8.1 mph - N/A   Partly Cloudy
11:00 PM 55.4 °F - 53.6 °F 94% 29.77 in 6.2 mi East 5.8 mph - N/A   Unknown
11:30 PM 55.4 °F - 53.6 °F 94% 29.77 in 6.2 mi East 6.9 mph - N/A   Unknown